Location: Eastchurch
(51.4000°N, 0.8667°E)
Time: 06:59:40
(UTC+00:00)

RESURS DK-1 - Pass Details

Date: 19 January 2026
Orbit: 526 x 531 km, 69.9° (Epoch: 18 February)

Event Time Altitude Azimuth Distance (km) Brightness Sun altitude
Rises 19:20:15 0° 252° (WSW) 2,672 6.9 -26.9°
Reaches altitude 10° 19:22:52 10° 269° (W) 1,786 5.9 -27.3°
Maximum altitude 19:25:53 20° 319° (NW) 1,256 4.5 -27.8°
Enters shadow 19:26:28 20° 331° (NNW) 1,280 4.4 -27.9°
